THORAD AGENA D DEB, 42533

Orbit data source: Space-Track

THORAD AGENA D DEB, 42533 is space debris in SSO originally from a launch on Wed, 08 Apr 1970 UTC launched from the Air Force Western Test Range (AFWTR). Debris objects in space refer to the collection of defunct objects orbiting the Earth. Examples of debris include non-operational satellites, rocket bodies, and fragments generated from explosions, collisions, or faulty payload assembly.

Loading next visibility...
Identifier
42533, 1970-025SP
Orbit
SSO
Country
Flag of USUS
Related business
Manufacturer
Unknown
Mission
Spacecraft
Bus & Motor
Unknown
Mass
Unknown
Launch date (UTC)
1970-04-08 (56 years ago)
Launch vehicle
Unknown
Launch site
Air Force Western Test Range (AFWTR)
Object type
Payload
Rocket body
Debris
Shape & HBR
Unknown shape, 0.1 m
Radar Cross Section
Small (<0.1 m²)

Expand to show TLE details & history
Last TLE update: 2 days ago

TLE from 2 days ago
0 THORAD AGENA D DEB
1 42533U 70025SP  25309.45418998  .00001991  00000-0  16110-2 0  9999
2 42533  99.6588 214.0837 0135064 210.9945 148.3189 13.87333236602863
Epoch: 2025-11-05T10:54Z
TLE epoch observation values (Epoch: 2025-11-05T10:54:02.014Z)
Latitude
-0.00006°
Longitude
5.64869°
Altitude
1,025.297 km
Speed
7.297 km/s
True Right ascension
14h 16m 20s
True Declination
0° 00' 00"
Sunlit
Object was in daylight at epoch
Visualization orbit readout
Latitude
Unknown
Longitude
Unknown
Altitude
Unknown
Speed
Unknown
Apparent Right ascension
Unknown
Apparent Declination
Unknown
Sunlit
N/A
Visualization observer readout
Local Sidereal Time
18:27:24
Azimuth
Unknown
Elevation
Unknown
Doppler factor
Unknown
Orbital elements
Apogee altitude
1,034.018 km
Perigee altitude
836.463 km
Semi-major axis
7,313.377 km
Eccentricity
0.01351
Inclination
99.6588°
RAAN
214.0837°
Arg. of periapsis
210.9945°
True anomaly
149.1202°
Mean anomaly
148.3189°
Eccentric anomaly
148.7207°
Mean motion
3.47029 °/min
Orbital period
103.74 mins
BSTAR
0.001611
Loading maneuver chart data...
Computing Atmospheric mass density...
Loading historical data...
Loading historical data...
Loading historical data...
Loading historical data...
Loading historical data...
Loading historical data...
Loading historical data...

Documentation

Showing up to 5 results
|